Weather History for KBAD - November, 2011

Change the Weather History Date:

Friday, November 25, 2011

  Actual Average Record
Temperature  
Mean Temperature 56 °F -  
Max Temperature 70 °F 61 °F 78 °F (2010)
Min Temperature 41 °F 43 °F 26 °F (2003)
Degree Days  
Heating Degree Days 10    
Growing Degree Days 6 (Base 50)    
Moisture  
Dew Point 46 °F    
Average Humidity 94    
Maximum Humidity 100    
Minimum Humidity 55    
Precipitation  
Precipitation 0.00 in - - ()
Sea Level Pressure  
Sea Level Pressure 30.17 in    
Wind  
Wind Speed 1 mph (SSE)    
Max Wind Speed 13 mph    
Max Gust Speed -    
Visibility 4 miles    
Events Fog    
Averages and records for this station are not official NWS values.
T = Trace of Precipitation, MM = Missing Value Source: NWS Daily Summary

Daily Weather History Graph

Daily Weather History Graph

Search for Another Location

Airport or City:

Trip Planner

Search our weather history database for the weather conditions in past years. The results will help you decide how hot, cold, wet, or windy it might be!

Date:

Astronomy

Nov. 25, 2011 Rise Set
Actual Time 6:53 AM CST 5:09 PM CST
Civil Twilight 6:26 AM CST 5:36 PM CST
Nautical Twilight 5:56 AM CST 6:06 PM CST
Astronomical Twilight 5:26 AM CST 6:36 PM CST
Moon 7:18 AM CST (11/25) 5:41 PM CST (11/25)
Length of Visible Light 11h 10m
Length of Day
10h 16m
New Moon, 0% of the Moon is Illuminated
Nov 25
New Moon
Dec 2
First Quarter
Dec 10
Full
Dec 17
Last Quarter
Dec 24
New

Hourly Weather History & Observations

Time (CST) Temp. Windchill Dew Point Humidity Pressure Visibility Wind Dir Wind Speed Gust Speed Precip Events Conditions
12:55 AM 47.1 °F - 46.8 °F 99% 30.21 in 10.0 mi ESE 3.5 mph - N/A   Clear
1:55 AM 45.3 °F 44.0 °F 45.0 °F 99% 30.19 in 10.0 mi SE 3.5 mph - N/A   Clear
2:20 AM 44.6 °F - 44.6 °F 100% 30.19 in 7.0 mi Calm Calm - N/A   Clear
2:26 AM 46.4 °F - 44.6 °F 93% 30.19 in 2.5 mi Calm Calm - N/A   Clear
2:27 AM 46.4 °F - 46.4 °F 100% 30.19 in 2.0 mi Calm Calm - N/A   Clear
2:28 AM 46.4 °F - 46.4 °F 100% 30.19 in 1.8 mi Calm Calm - N/A   Clear
2:29 AM 46.4 °F - 46.4 °F 100% 30.19 in 1.5 mi Calm Calm - N/A   Clear
2:33 AM 46.4 °F - 46.4 °F 100% 30.19 in 1.5 mi Calm Calm - N/A   Clear
2:34 AM 46.4 °F - 46.4 °F 100% 30.19 in 1.8 mi Calm Calm - N/A   Clear
2:35 AM 46.4 °F - 46.4 °F 100% 30.19 in 2.0 mi Calm Calm - N/A   Clear
2:36 AM 46.4 °F - 46.4 °F 100% 30.19 in 2.5 mi Calm Calm - N/A   Clear
2:38 AM 46.4 °F - 46.4 °F 100% 30.19 in 3.0 mi Calm Calm - N/A   Clear
2:40 AM 46.4 °F - 46.4 °F 100% 30.19 in 2.5 mi Calm Calm - N/A   Clear
2:42 AM 46.4 °F - 46.4 °F 100% 30.19 in 2.0 mi Calm Calm - N/A   Clear
2:43 AM 46.4 °F - 46.4 °F 100% 30.19 in 1.5 mi Calm Calm - N/A   Clear
2:44 AM 46.4 °F - 46.4 °F 100% 30.19 in 1.2 mi Calm Calm - N/A   Clear
2:45 AM 46.4 °F - 46.4 °F 100% 30.19 in 1.0 mi Calm Calm - N/A   Clear
2:47 AM 46.4 °F - 46.4 °F 100% 30.19 in 1.0 mi Calm Calm - N/A   Clear
2:48 AM 46.4 °F - 46.4 °F 100% 30.19 in 0.8 mi Calm Calm - N/A   Clear
2:51 AM 46.4 °F - 46.4 °F 100% 30.19 in 0.8 mi Calm Calm - N/A   Clear
2:53 AM 46.4 °F - 46.4 °F 100% 30.19 in 0.8 mi Calm Calm - N/A   Clear
2:55 AM 46.2 °F - 46.0 °F 99% 30.19 in 0.8 mi Calm Calm - N/A   Clear
2:56 AM 46.4 °F - 46.4 °F 100% 30.19 in 1.0 mi Calm Calm - N/A   Clear
2:58 AM 46.4 °F - 46.4 °F 100% 30.19 in 1.2 mi Calm Calm - N/A   Clear
2:59 AM 46.4 °F - 46.4 °F 100% 30.19 in 1.2 mi Calm Calm - N/A   Clear
3:00 AM 46.4 °F - 46.4 °F 100% 30.19 in 1.8 mi Calm Calm - N/A   Clear
3:02 AM 46.4 °F - 46.4 °F 100% 30.19 in 2.0 mi Calm Calm - N/A   Clear
3:03 AM 46.4 °F - 46.4 °F 100% 30.19 in 2.5 mi Calm Calm - N/A   Clear
3:04 AM 46.4 °F - 46.4 °F 100% 30.19 in 3.0 mi Calm Calm - N/A   Clear
3:14 AM 46.4 °F - 44.6 °F 93% 30.19 in 3.0 mi Calm Calm - N/A   Clear
3:34 AM 44.6 °F 43.1 °F 44.6 °F 100% 30.19 in 6.0 mi SE 3.5 mph - N/A   Clear
3:55 AM 43.9 °F - 43.5 °F 99% 30.19 in 8.0 mi Calm Calm - N/A   Clear
4:09 AM 42.8 °F 41.1 °F 42.8 °F 100% 30.19 in 8.0 mi SSE 3.5 mph - N/A   Clear
4:55 AM 43.2 °F - 42.8 °F 99% 30.19 in 10.0 mi Calm Calm - N/A   Clear
5:25 AM 42.8 °F - 42.8 °F 100% 30.20 in 2.5 mi Calm Calm - N/A   Clear
5:27 AM 42.8 °F - 42.8 °F 100% 30.20 in 2.0 mi Calm Calm - N/A   Clear
5:28 AM 42.8 °F - 42.8 °F 100% 30.20 in 2.0 mi Calm Calm - N/A   Clear
5:29 AM 42.8 °F - 42.8 °F 100% 30.20 in 2.5 mi Calm Calm - N/A   Clear
5:33 AM 42.8 °F - 42.8 °F 100% 30.20 in 2.0 mi Calm Calm - N/A   Clear
5:34 AM 42.8 °F - 42.8 °F 100% 30.20 in 2.5 mi Calm Calm - N/A   Clear
5:36 AM 42.8 °F - 42.8 °F 100% 30.20 in 3.0 mi Calm Calm - N/A   Clear
5:38 AM 42.8 °F - 42.8 °F 100% 30.20 in 2.5 mi Calm Calm - N/A   Clear
5:39 AM 42.8 °F - 42.8 °F 100% 30.20 in 2.0 mi Calm Calm - N/A   Clear
5:40 AM 42.8 °F - 42.8 °F 100% 30.20 in 1.8 mi Calm Calm - N/A   Clear
5:41 AM 42.8 °F - 42.8 °F 100% 30.20 in 1.5 mi Calm Calm - N/A   Clear
5:42 AM 42.8 °F - 42.8 °F 100% 30.20 in 1.2 mi Calm Calm - N/A   Clear
5:46 AM 42.8 °F - 42.8 °F 100% 30.20 in 1.2 mi Calm Calm - N/A   Clear
5:52 AM 42.8 °F - 42.8 °F 100% 30.20 in 1.0 mi Calm Calm - N/A   Clear
5:54 AM 42.8 °F - 42.8 °F 100% 30.20 in 0.8 mi Calm Calm - N/A   Clear
5:55 AM 43.0 °F - 42.6 °F 99% 30.21 in 0.8 mi Calm Calm - N/A   Clear
5:57 AM 42.8 °F - 42.8 °F 100% 30.21 in 0.5 mi Calm Calm - N/A Fog Fog
5:58 AM 42.8 °F - 42.8 °F 100% 30.21 in 0.5 mi Calm Calm - N/A Fog Fog
6:05 AM 42.8 °F - 42.8 °F 100% 30.21 in 0.5 mi Calm Calm - N/A Fog Fog
6:06 AM 42.8 °F - 42.8 °F 100% 30.21 in 0.5 mi Calm Calm - N/A Fog Fog
6:07 AM 42.8 °F - 42.8 °F 100% 30.21 in 0.5 mi Calm Calm - N/A Fog Fog
6:08 AM 42.8 °F - 42.8 °F 100% 30.21 in 0.8 mi Calm Calm - N/A   Clear
6:09 AM 42.8 °F - 42.8 °F 100% 30.21 in 0.8 mi Calm Calm - N/A   Clear
6:10 AM 42.8 °F - 42.8 °F 100% 30.21 in 1.0 mi Calm Calm - N/A   Clear
6:11 AM 42.8 °F - 42.8 °F 100% 30.21 in 1.2 mi Calm Calm - N/A   Clear
6:12 AM 42.8 °F - 42.8 °F 100% 30.21 in 1.8 mi Calm Calm - N/A   Clear
6:13 AM 42.8 °F - 42.8 °F 100% 30.21 in 2.5 mi Calm Calm - N/A   Clear
6:14 AM 42.8 °F - 42.8 °F 100% 30.21 in 3.0 mi Calm Calm - N/A   Clear
6:21 AM 42.8 °F - 42.8 °F 100% 30.21 in 6.0 mi Calm Calm - N/A   Clear
6:22 AM 42.8 °F - 42.8 °F 100% 30.21 in 6.0 mi Calm Calm - N/A   Clear
6:30 AM 42.8 °F - 42.8 °F 100% 30.21 in 9.0 mi Calm Calm - N/A   Clear
6:55 AM 41.0 °F - 40.8 °F 99% 30.21 in 9.0 mi Calm Calm - N/A   Clear
7:55 AM 44.2 °F 41.0 °F 44.1 °F 99% 30.21 in 10.0 mi SSE 5.8 mph - N/A   Clear
8:55 AM 51.8 °F - 51.8 °F 100% 30.21 in 10.0 mi South 4.6 mph - N/A   Clear
9:55 AM 59.7 °F - 50.2 °F 71% 30.19 in 10.0 mi SSE 9.2 mph - N/A   Clear
10:55 AM 63.1 °F - 49.3 °F 61% 30.18 in 10.0 mi South 12.7 mph - N/A   Clear
11:55 AM 66.7 °F - 50.5 °F 56% 30.14 in 10.0 mi SSE 9.2 mph - N/A   Clear
12:55 PM 68.2 °F - 51.6 °F 55% 30.10 in 10.0 mi South 10.4 mph - N/A   Clear
1:55 PM 68.7 °F - 52.7 °F 57% 30.06 in 10.0 mi SSE 11.5 mph - N/A   Clear
2:55 PM 70.7 °F - 54.3 °F 56% 30.03 in 10.0 mi SSE 9.2 mph - N/A   Partly Cloudy
3:55 PM 69.6 °F - 55.0 °F 60% 30.01 in 10.0 mi SSE 11.5 mph - N/A   Scattered Clouds
4:55 PM 67.3 °F - 55.0 °F 65% 29.99 in 10.0 mi SE 6.9 mph - N/A   Scattered Clouds
5:55 PM 63.7 °F - 54.5 °F 72% 29.98 in 10.0 mi SE 6.9 mph - N/A   Clear
6:55 PM 61.2 °F - 53.8 °F 77% 29.99 in 10.0 mi SSE 5.8 mph - N/A   Clear
7:55 PM 59.9 °F - 54.7 °F 83% 30.00 in 10.0 mi Calm Calm - N/A   Mostly Cloudy
8:55 PM 61.2 °F - 56.1 °F 83% 30.00 in 10.0 mi SSE 5.8 mph - N/A   Overcast
9:55 PM 61.2 °F - 55.8 °F 82% 30.01 in 10.0 mi SE 3.5 mph - N/A   Overcast
10:55 PM 62.4 °F - 55.9 °F 79% 30.01 in 10.0 mi SSE 4.6 mph - N/A   Overcast
11:55 PM 61.0 °F - 55.8 °F 83% 30.02 in 10.0 mi SSE 3.5 mph - N/A   Overcast